Find Starlink 34626

NORAD ID: 65082 Int'l Des: 2025-167 Owner: SPXS Country: US Constellation: starlink operational
LEOCIRCULAR

Live Position

Loading 3D Globe...

About Starlink 34626

Description loading...

Upcoming Passes

Passes for default location (London). Set your location on the main map for personalized predictions.

Altitude History

Loading altitude history...

Two-Line Element Set

1 65082U 25167E 26106.57157713 .00005228 00000-0 18840-3 0 9994
2 65082 53.1587 210.5039 0000650 55.8641 304.2421 15.30217634 39282
Epoch: Apr 16, 2026 • Age: 20 hours

Current Status

Altitude 487.0 km
Velocity 7.62 km/s
Sub-Earth Point -35.72°S, 70.83°E
Launch Date Aug 4, 2025
Age 0.7 years
Type internet

Technical Details

Classification Payload
Mass 575.00 kg
Dry Mass 530.00 kg
Total Mass 575.00 kg
Length 0.30 m
Diameter 4.10 m
Span 29.00 m
Shape Box + pan
Manufacturer SPXS
Bus Type Starlink V2MO
Phase Status In Orbit
Owner/State SPXS/US

Most Searched